Location: Lewisville
(33.0462°N, 96.9942°W)
Time: 20:24:55
(UTC-06:00)

Envisat - Pass Details

Date: 27 September 2019
Orbit: 764 x 766 km, 98.1° (Epoch: 14 November)

Event Time Altitude Azimuth Distance (km) Brightness Sun altitude
Rises 19:59:59 0° 177° (S) 3,216 6.2 -9.6°
Reaches altitude 10° 20:02:19 10° 181° (S) 2,294 5.4 -10.1°
Maximum altitude 20:07:17 57° 260° (W) 902 3.8 -11.1°
Drops below altitude 10° 20:12:17 10° 338° (NNW) 2,308 5.9 -12.2°
Sets 20:14:39 0° 343° (NNW) 3,238 6.6 -12.7°
